Regional Weather Roundup
Issued by NWS Sioux Falls, SD

Home | Current Version | Previous Version | Graphics & Text | Print | Product List | Glossary On
Versions: 1 2 3 4 5 6 7 8 9 10 11 12 13 14 15 16 17 18 19 20 21 22 23 24 25 26 27 28 29 30 31 32 33 34 35 36 37 38 39 40 41 42 43 44 45 46 47 48 49 50
452
ASUS43 KFSD 261210
RWRFSD

WEATHER ROUNDUP FOR SE SOUTH DAKOTA/SW MINNESOTA/NW IOWA
NATIONAL WEATHER SERVICE SIOUX FALLS SD
700 AM CDT WED APR 26 2017

NOTE: "FAIR" INDICATES FEW OR NO CLOUDS BELOW 12,000 FEET WITH NO
SIGNIFICANT WEATHER AND OR OBSTRUCTIONS TO VISIBILITY.


SDZ038>040-050-052>070-261300-
SOUTHEAST SOUTH DAKOTA

CITY           SKY/WX    TMP DP  RH WIND       PRES   REMARKS
BROOKINGS      CLOUDY    31  30  96 N13G21    29.65R WCI  21
CHAMBERLAIN    CLOUDY    34  31  86 W13       29.79R WCI  25
6HR MIN TEMP:  33; 6HR MAX TEMP:  35;

HURON          CLOUDY    31  29  92 N16       29.75R WCI  20
6HR MIN TEMP:  31; 6HR MAX TEMP:  32; 6HR PCP: TRACE;

MADISON        CLOUDY    32  32 100 N14G21    29.66R WCI  22
MITCHELL       CLOUDY    33  30  88 NW18      29.74R WCI  22
6HR MIN TEMP:  33; 6HR MAX TEMP:  34; 6HR PCP: TRACE;

SIOUX FALLS    CLOUDY    35  34  96 NW14G22   29.65R WCI  26
6HR MIN TEMP:  35; 6HR MAX TEMP:  37; 6HR PCP: TRACE;

WINNER         CLOUDY    33  29  85 NW20      29.80R WCI  21
YANKTON        CLOUDY   N/A N/A N/A NW18G25   29.69F
$$

MNZ071-072-080-081-089-090-097-098-261300-
SOUTHWEST MINNESOTA

CITY           SKY/WX    TMP DP  RH WIND       PRES   REMARKS
FAIRMONT       LGT RAIN  37  36  96 NW22G32   29.51R FOG
JACKSON        CLOUDY    36  34  93 NW21G28   29.54R
LUVERNE        CLOUDY    34  32  93 N15       29.62S WCI  24
MARSHALL       MIX PCPN  34  32  92 N20G28    29.62R WCI  23
6HR MIN TEMP:  34; 6HR MAX TEMP:  37; 6HR PCP: TRACE;

MONTEVIDEO     CLOUDY    34  34 100 N14       29.63R FOG     WCI  24
PIPESTONE      MIX PCPN  34  30  86 N13G18    29.61R WCI  25
REDWOOD FALLS  CLOUDY    36  33  89 NW12      29.58R
TRACY          CLOUDY    35  35  99 N16G25    29.60R FOG     WCI  25
WINDOM         DRIZZLE   36  36 100 NW22G30   29.54F
WORTHINGTON    MIX PCPN  34  33  96 NW18      29.58S FOG     WCI  23
$$

IAZ001>003-012>014-020>022-031-032-NEZ013-014-SDZ071-261300-
NORTHWEST IOWA

CITY           SKY/WX    TMP DP  RH WIND       PRES   REMARKS
CHEROKEE       CLOUDY    36  36  99 NW14G22   29.59R
DENISON        CLOUDY    36  36 100 NW17      29.60S
ESTHERVILLE    CLOUDY    37  37 100 NW24G30   29.52R FOG
LE MARS        CLOUDY    36  34  93 NW15G23   29.63F
ORANGE CITY    CLOUDY    36  36 100 NW14G25   29.61S
SHELDON        CLOUDY    36  34  93 NW17G23   29.58R
SIOUX CITY     CLOUDY    35  33  92 NW25G33   29.63S WCI  23
6HR MIN TEMP:  35; 6HR MAX TEMP:  38;

SPENCER        CLOUDY    38  36  92 NW17      29.55R
6HR MIN TEMP:  38; 6HR MAX TEMP:  41; 6HR PCP:  0.02;

STORM LAKE     CLOUDY    36  36 100 NW22      29.55S FOG
$$

ABBREVIATIONS USED IN REMARKS
   TC - TEMPERATURE IN CELSIUS
  WCI - WIND CHILL INDEX
   HX - HEAT INDEX
  VSB - VISIBILITY





USA.gov is the U.S. government's official web portal to all federal, state and local government web resources and services.